Weather History for Barrow, AK

Change the Weather History Date:

Monday, January 14, 2013

  Actual Average Record
Temperature  
Mean Temperature -2 °F -14 °F  
Max Temperature 3 °F -7 °F 28 °F (1957)
Min Temperature -7 °F -20 °F -50 °F (1951)
Degree Days  
Heating Degree Days 66 79  
Month to date heating degree days 1086  
Since 1 July heating degree days 9293  
Cooling Degree Days 0    
Month to date cooling degree days  
Year to date cooling degree days  
Moisture  
Dew Point -7 °F    
Average Humidity 81    
Maximum Humidity 88    
Minimum Humidity 78    
Precipitation  
Precipitation 0.00 in 0.00 in 0.11 in (1952)
Month to date precipitation 0.06  
Year to date precipitation 0.06  
Snow  
Snow 0.00 in 0.10 in 1.50 in (2000)
Month to date snowfall 1.2  
Since 1 July snowfall 25.0  
Snow Depth 6.00 in    
Sea Level Pressure  
Sea Level Pressure 29.69 in    
Wind  
Wind Speed 38 mph (ENE)    
Max Wind Speed 45 mph    
Max Gust Speed 53 mph    
Visibility 1 miles    
Events Snow    
T = Trace of Precipitation, MM = Missing Value Source: NWS Daily Summary

Daily Weather History Graph

Daily Weather History Graph

Search for Another Location

Airport:

Trip Planner

Search our weather history database for the weather conditions in past years. The results will help you decide how hot, cold, wet, or windy it might be!

Date:

Astronomy

Jan. 14, 2013 Rise Set
Actual Time 1:04 PM AKST 2:08 PM AKST
Civil Twilight 11:06 AM AKST 4:07 PM AKST
Nautical Twilight 9:22 AM AKST 5:50 PM AKST
Astronomical Twilight 8:01 AM AKST 7:12 PM AKST
Moon 11:11 AM AKST (1/14) 9:57 PM AKST (1/14)
Length of Visible Light 5h 01m
Length of Day
1h 04m
Waxing Crescent, 12% of the Moon is Illuminated
Jan 14
Waxing Crescent
Jan 18
First Quarter
Jan 26
Full
Feb 3
Last Quarter
Feb 9
New

Hourly Weather History & Observations

Time (AKST) Temp. Windchill Dew Point Humidity Pressure Visibility Wind Dir Wind Speed Gust Speed Precip Events Conditions
12:53 AM 1.9 °F -23.9 °F -0.9 °F 88% 29.73 in 0.2 mi East 32.2 mph 43.7 mph 0.00 in Snow Light Snow
1:53 AM 3.0 °F -23.4 °F -0.9 °F 84% 29.73 in 0.2 mi East 35.7 mph 46.0 mph 0.00 in Snow Light Snow
2:53 AM 3.2 °F -24.1 °F -0.4 °F 85% 29.72 in 0.2 mi East 39.1 mph 47.2 mph N/A Snow Light Snow
3:53 AM 3.0 °F -24.9 °F -0.9 °F 84% 29.73 in 0.2 mi East 41.4 mph 48.3 mph 0.00 in Snow Light Snow
4:53 AM 1.9 °F -24.9 °F -2.0 °F 83% 29.73 in 0.2 mi East 35.7 mph 49.5 mph 0.00 in Snow Light Snow
5:53 AM 1.9 °F -26.1 °F -2.0 °F 83% 29.72 in 0.2 mi East 40.3 mph 47.2 mph 0.00 in Snow Light Snow
6:53 AM 1.9 °F -25.8 °F -2.9 °F 80% 29.71 in 0.2 mi East 39.1 mph 47.2 mph 0.00 in Snow Light Snow
7:53 AM 1.9 °F -26.4 °F -2.9 °F 80% 29.69 in 0.2 mi ENE 41.4 mph 49.5 mph 0.00 in Snow Light Snow
8:53 AM 1.0 °F -28.2 °F -2.9 °F 83% 29.68 in 0.2 mi ENE 43.7 mph 50.6 mph 0.00 in Snow Light Snow
9:53 AM 1.0 °F -27.9 °F -4.0 °F 79% 29.68 in 0.5 mi ENE 42.6 mph 47.2 mph 0.00 in Snow Light Snow
10:37 AM -0.4 °F -29.1 °F -4.0 °F 85% 29.67 in 0.8 mi ENE 39.1 mph 49.5 mph 0.00 in Snow Light Snow
10:53 AM -0.0 °F -29.2 °F -5.1 °F 79% 29.68 in 0.8 mi ENE 41.4 mph 52.9 mph 0.00 in Snow Light Snow
11:19 AM -0.4 °F -30.5 °F -5.8 °F 78% 29.65 in 0.2 mi ENE 44.9 mph 51.8 mph 0.00 in Snow Light Snow
11:53 AM -0.9 °F -30.7 °F -6.0 °F 79% 29.64 in 0.5 mi ENE 42.6 mph 50.6 mph 0.00 in Snow Blowing Snow
12:53 PM -2.0 °F -32.2 °F -7.1 °F 79% 29.67 in 0.5 mi ENE 42.6 mph 50.6 mph N/A Snow Blowing Snow
1:59 PM -2.2 °F -31.9 °F -7.6 °F 78% 29.64 in 0.5 mi ENE 40.3 mph 48.3 mph 0.00 in Snow Blowing Snow
2:53 PM -2.9 °F -32.9 °F -8.0 °F 79% 29.64 in 0.5 mi ENE 40.3 mph 50.6 mph 0.00 in Snow Blowing Snow
3:01 PM -4.0 °F -33.8 °F -7.6 °F 85% 29.63 in 0.5 mi ENE 38.0 mph 48.3 mph N/A Snow Blowing Snow
3:53 PM -4.0 °F -33.8 °F -9.0 °F 79% 29.63 in 0.5 mi ENE 38.0 mph 50.6 mph N/A Snow Blowing Snow
4:53 PM -4.0 °F -32.8 °F -9.0 °F 79% 29.65 in 0.5 mi ENE 34.5 mph 43.7 mph N/A Snow Blowing Snow
5:00 PM -4.0 °F -33.1 °F -9.4 °F 78% 29.64 in 0.8 mi ENE 35.7 mph 42.6 mph N/A Snow Blowing Snow
5:12 PM -4.0 °F -33.8 °F -9.4 °F 78% 29.64 in 0.5 mi ENE 38.0 mph 46.0 mph N/A Snow Blowing Snow
5:41 PM -5.8 °F -36.6 °F -9.4 °F 84% 29.65 in 1.0 mi ENE 39.1 mph 48.3 mph N/A Snow Blowing Snow
5:53 PM -5.1 °F -34.9 °F -9.9 °F 80% 29.66 in 1.2 mi ENE 36.8 mph 44.9 mph N/A Snow Blowing Snow
6:02 PM -5.8 °F -35.6 °F -9.4 °F 84% 29.66 in 0.8 mi ENE 35.7 mph 44.9 mph N/A Snow Blowing Snow
6:53 PM -5.1 °F -34.9 °F -9.9 °F 80% 29.68 in 0.8 mi ENE 36.8 mph 46.0 mph N/A Snow Blowing Snow
7:53 PM -5.1 °F -34.9 °F -9.9 °F 80% 29.69 in 0.8 mi ENE 36.8 mph 47.2 mph 0.00 in Snow Light Snow
8:00 PM -5.8 °F -35.9 °F -9.4 °F 84% 29.69 in 1.2 mi ENE 36.8 mph 46.0 mph 0.00 in Snow Light Snow
8:14 PM -5.8 °F -36.6 °F -9.4 °F 84% 29.70 in 1.0 mi ENE 39.1 mph 50.6 mph 0.00 in Snow Light Snow
8:53 PM -5.1 °F -34.6 °F -9.9 °F 80% 29.73 in 1.0 mi ENE 35.7 mph 43.7 mph 0.00 in Snow Light Snow
9:17 PM -5.8 °F -35.6 °F -9.4 °F 84% 29.73 in 0.8 mi ENE 35.7 mph 46.0 mph 0.00 in Snow Light Snow
9:53 PM -6.0 °F -36.2 °F -9.9 °F 83% 29.74 in 1.0 mi ENE 36.8 mph 43.7 mph 0.00 in Snow Light Snow
10:53 PM -6.0 °F -35.5 °F -11.0 °F 79% 29.78 in 1.0 mi ENE 34.5 mph 44.9 mph 0.00 in Snow Light Snow
11:53 PM -7.1 °F -37.0 °F -11.9 °F 79% 29.80 in 1.8 mi ENE 34.5 mph 43.7 mph 0.00 in Snow Light Snow